M I D A S
Marine Information and Data Acquisition System
Tripno 250 of the Zeeleeuw from 2002-04-25 07:43:40 to 2002-04-25 11:15:19
Back to CruiseResearch ActivitiesStationsMapUnderway DataData graphs

EquipmentUnitsComment
TimeDGPSUTC
LatitudeDGPSDM.mWGS84
LongitudeDGPSDM.mWGS84
TemperatureSBE03/SBE38deg celciusITS90
ConductivitySBE21S/mITS90
SalinitySBE21 Practical Salinity Units
ChlorophylAChelsea fluorimeterg/lCalibrated in Aceton
Missing or incorrect values are displayed as -999
Sea surface data collected by the RV Zeeleeuw from 2002-04-25 07:43:40 to 2002-04-25 11:15:19
                                                                                    Next 1000 lines
Time Latitude Longitude Temperature Conductivity Salinity ChlorophylA
2002-04-25 07:43:51 51°13.687 2°55.904 -999 0.023249 0.114719  
2002-04-25 07:43:55 51°13.687 2°55.903 -999 0.023249 0.114724  
2002-04-25 07:44:00 51°13.687 2°55.902 -999 0.023249 0.114729  
2002-04-25 07:44:05 51°13.687 2°55.899 -999 0.023249 0.114735  
2002-04-25 07:44:10 51°13.688 2°55.897 -999 0.023249 0.114735  
2002-04-25 07:44:15 51°13.688 2°55.893 -999 0.023249 0.11474  
2002-04-25 07:44:21 51°13.689 2°55.889 -999 0.023249 0.114745  
2002-04-25 07:44:26 51°13.689 2°55.884 -999 0.023249 0.114747  
2002-04-25 07:44:31 51°13.69 2°55.879 -999 0.023249 0.114753  
2002-04-25 07:44:36 51°13.691 2°55.874 -999 0.023249 0.114758  
2002-04-25 07:44:41 51°13.691 2°55.868 -999 0.023249 0.114758  
2002-04-25 07:44:46 51°13.692 2°55.862 -999 0.023249 0.114764  
2002-04-25 07:44:51 51°13.693 2°55.855 -999 0.023249 0.11477  
2002-04-25 07:44:56 51°13.693 2°55.849 -999 0.023249 0.114776  
2002-04-25 07:45:01 51°13.694 2°55.842 -999 0.023249 0.11478  
2002-04-25 07:45:06 51°13.695 2°55.835 -999 0.023249 0.114783  
2002-04-25 07:45:11 51°13.695 2°55.828 -999 0.023249 0.114783  
2002-04-25 07:45:16 51°13.696 2°55.821 -999 0.023249 0.114787  
2002-04-25 07:45:21 51°13.696 2°55.815 49.752357 0.023249 0.114792  
2002-04-25 07:45:26 51°13.696 2°55.808 47.760197 0.023249 0.114795  
2002-04-25 07:45:31 51°13.697 2°55.801 48.293151 0.023249 0.114797  
2002-04-25 07:45:36 51°13.697 2°55.795 48.027875 0.023249 0.114802  
2002-04-25 07:45:41 51°13.697 2°55.788 48.027875 0.023249 0.114802  
2002-04-25 07:45:46 51°13.697 2°55.782 46.838289 0.023249 0.114806  
2002-04-25 07:45:51 51°13.696 2°55.776 47.958348 0.023249 0.114809  
2002-04-25 07:45:55 51°13.696 2°55.771 45.998684 0.023249 0.114811  
2002-04-25 07:46:00 51°13.696 2°55.765 46.417301 0.023249 0.114813  
2002-04-25 07:46:06 51°13.695 2°55.758 48.032478 0.023249 0.114818  
2002-04-25 07:46:10 51°13.695 2°55.754 48.032478 0.023249 0.114818  
2002-04-25 07:46:15 51°13.694 2°55.748 45.731437 0.023249 0.114821  
2002-04-25 07:46:20 51°13.694 2°55.743 47.298441 0.023249 0.114822  
2002-04-25 07:46:25 51°13.693 2°55.738 46.359101 0.023249 0.114825  
2002-04-25 07:46:30 51°13.692 2°55.733 46.058344 0.023249 0.114826  
2002-04-25 07:46:35 51°13.691 2°55.729 47.723732 0.023249 0.114828  
2002-04-25 07:46:40 51°13.69 2°55.725 47.723732 0.023249 0.114828  
2002-04-25 07:46:45 51°13.69 2°55.722 45.01078 0.023249 0.114832  
2002-04-25 07:46:50 51°13.69 2°55.722 41.558059 0.023249 0.114832  
2002-04-25 07:46:55 51°13.691 2°55.722 39.455889 0.023249 0.114837  
2002-04-25 07:47:00 51°13.693 2°55.725 40.587665 0.023249 0.114837  
2002-04-25 07:47:05 51°13.696 2°55.727 43.271908 0.023249 0.114837  
2002-04-25 07:47:10 51°13.699 2°55.73 43.271908 0.023249 0.114837  
2002-04-25 07:47:15 51°13.704 2°55.732 39.663913 0.023249 0.114841  
2002-04-25 07:47:20 51°13.709 2°55.734 41.094761 0.023249 0.114838  
2002-04-25 07:47:25 51°13.715 2°55.733 38.951727 0.023249 0.114839  
2002-04-25 07:47:30 51°13.721 2°55.732 43.919128 0.023249 0.114837  
2002-04-25 07:47:35 51°13.726 2°55.729 41.964819 0.023249 0.114837  
2002-04-25 07:47:40 51°13.732 2°55.726 41.964819 0.023249 0.114837  
2002-04-25 07:47:45 51°13.737 2°55.722 41.553486 0.023249 0.114839  
2002-04-25 07:47:50 51°13.741 2°55.719 43.151827 0.023249 0.114839  
2002-04-25 07:47:55 51°13.746 2°55.714 40.187908 0.023249 0.114848  
2002-04-25 07:48:00 51°13.751 2°55.71 42.566796 0.023249 0.114855  
2002-04-25 07:48:05 51°13.756 2°55.704 40.903073 0.023249 0.11486  
2002-04-25 07:48:10 51°13.761 2°55.699 40.903073 0.023249 0.11486  
2002-04-25 07:48:15 51°13.765 2°55.693 42.520462 0.023249 0.114867  
2002-04-25 07:48:20 51°13.77 2°55.686 41.210233 0.023249 0.114867  
2002-04-25 07:48:25 51°13.775 2°55.68 41.37029 0.023249 0.114867  
2002-04-25 07:48:30 51°13.78 2°55.674 42.548995 0.023249 0.114867  
2002-04-25 07:48:35 51°13.785 2°55.667 41.863127 0.023249 0.114868  
2002-04-25 07:48:40 51°13.79 2°55.661 41.863127 0.023249 0.114868  
2002-04-25 07:48:45 51°13.795 2°55.654 41.822901 0.023249 0.114871  
2002-04-25 07:48:50 51°13.8 2°55.648 40.702558 0.023249 0.114871  
2002-04-25 07:48:55 51°13.805 2°55.642 42.454501 0.023249 0.114873  
2002-04-25 07:49:00 51°13.811 2°55.637 42.149822 0.023249 0.114873  
2002-04-25 07:49:05 51°13.816 2°55.632 41.718083 0.023249 0.114873  
2002-04-25 07:49:10 51°13.821 2°55.628 41.718083 0.023249 0.114873  
2002-04-25 07:49:15 51°13.827 2°55.623 42.467016 0.023249 0.114874  
2002-04-25 07:49:20 51°13.833 2°55.62 43.413792 0.023249 0.114876  
2002-04-25 07:49:25 51°13.838 2°55.616 42.3538 0.023249 0.114877  
2002-04-25 07:49:30 51°13.843 2°55.613 40.446843 0.023249 0.114879  
2002-04-25 07:49:35 51°13.848 2°55.609 40.126009 0.023249 0.11488  
2002-04-25 07:49:40 51°13.853 2°55.605 40.126009 0.023249 0.11488  
2002-04-25 07:49:46 51°13.859 2°55.602 40.521035 0.023249 0.114882  
2002-04-25 07:49:50 51°13.863 2°55.599 39.342296 0.023249 0.114884  
2002-04-25 07:49:55 51°13.868 2°55.596 40.747645 0.023249 0.114886  
2002-04-25 07:50:00 51°13.873 2°55.594 40.441126 0.023249 0.114887  
2002-04-25 07:50:05 51°13.878 2°55.592 39.765997 0.023249 0.114887  
2002-04-25 07:50:10 51°13.882 2°55.589 39.765997 0.023249 0.114887  
2002-04-25 07:50:15 51°13.887 2°55.587 39.438089 0.023249 0.114892  
2002-04-25 07:50:20 51°13.892 2°55.585 37.183082 0.023249 0.114895  
2002-04-25 07:50:25 51°13.897 2°55.583 38.249383 0.023249 0.114896  
2002-04-25 07:50:30 51°13.901 2°55.581 38.981276 0.023249 0.114899  
2002-04-25 07:50:35 51°13.906 2°55.579 36.938829 0.023249 0.1149  
2002-04-25 07:50:40 51°13.91 2°55.577 36.938829 0.023249 0.1149  
2002-04-25 07:50:45 51°13.915 2°55.576 38.195645 0.023249 0.114903  
2002-04-25 07:50:51 51°13.921 2°55.573 37.606242 0.023249 0.114905  
2002-04-25 07:50:55 51°13.925 2°55.572 37.903524 0.023249 0.114909  
2002-04-25 07:51:00 51°13.93 2°55.569 38.623664 0.023249 0.114911  
2002-04-25 07:51:05 51°13.935 2°55.567 37.718211 0.023249 0.114913  
2002-04-25 07:51:10 51°13.941 2°55.564 37.718211 0.023249 0.114913  
2002-04-25 07:51:15 51°13.946 2°55.561 37.924248 0.023249 0.114915  
2002-04-25 07:51:20 51°13.952 2°55.558 37.549478 0.023249 0.114916  
2002-04-25 07:51:26 51°13.958 2°55.555 36.479818 0.023249 0.114921  
2002-04-25 07:51:30 51°13.962 2°55.553 37.191415 0.023249 0.114925  
2002-04-25 07:51:35 51°13.966 2°55.55 38.287124 0.023249 0.114928  
2002-04-25 07:51:40 51°13.971 2°55.548 38.287124 0.023249 0.114928  
2002-04-25 07:51:45 51°13.975 2°55.545 37.348126 0.023249 0.114931  
2002-04-25 07:51:50 51°13.978 2°55.543 36.285572 0.023249 0.114935  
2002-04-25 07:51:55 51°13.982 2°55.541 36.783608 0.023249 0.114938  
2002-04-25 07:52:00 51°13.985 2°55.539 37.475428 0.023249 0.11494  
2002-04-25 07:52:06 51°13.99 2°55.537 37.249655 0.023249 0.114941  
2002-04-25 07:52:10 51°13.993 2°55.536 37.249655 0.023249 0.114941  
2002-04-25 07:52:15 51°13.997 2°55.534 37.304833 0.023249 0.114947  
2002-04-25 07:52:20 51°14.001 2°55.531 37.233065 0.023249 0.11495  
2002-04-25 07:52:25 51°14.004 2°55.529 36.856943 0.023249 0.114951  
2002-04-25 07:52:30 51°14.009 2°55.526 37.090173 0.023249 0.114954  
2002-04-25 07:52:35 51°14.013 2°55.523 37.785618 0.023249 0.114956  
2002-04-25 07:52:40 51°14.018 2°55.519 37.785618 0.023249 0.114956  
2002-04-25 07:52:45 51°14.022 2°55.516 35.568078 0.023249 0.11496  
2002-04-25 07:52:50 51°14.027 2°55.512 37.535288 0.023249 0.114961  
2002-04-25 07:52:55 51°14.032 2°55.509 36.617326 0.023249 0.114967  
2002-04-25 07:53:00 51°14.037 2°55.505 36.219491 0.023249 0.114972  
2002-04-25 07:53:05 51°14.042 2°55.501 36.700494 0.023249 0.114975  
2002-04-25 07:53:10 51°14.047 2°55.497 36.700494 0.023249 0.114975  
2002-04-25 07:53:15 51°14.053 2°55.493 35.309771 0.023249 0.114977  
2002-04-25 07:53:20 51°14.058 2°55.489 35.927981 0.023249 0.11498  
2002-04-25 07:53:25 51°14.064 2°55.485 35.541904 0.023249 0.114983  
2002-04-25 07:53:30 51°14.069 2°55.48 35.544729 0.023249 0.114986  
2002-04-25 07:53:35 51°14.075 2°55.476 34.543865 0.023249 0.114991  
2002-04-25 07:53:40 51°14.08 2°55.471 34.543865 0.023249 0.114991  
2002-04-25 07:53:46 51°14.087 2°55.466 17.533366 0.023249 0.115024  
2002-04-25 07:53:51 51°14.093 2°55.461 14.951976 0.02315 0.114848  
2002-04-25 07:53:55 51°14.097 2°55.457 14.087841 1.735987 10.944849  
2002-04-25 07:54:00 51°14.103 2°55.452 13.56029 3.461912 24.439544  
2002-04-25 07:54:05 51°14.109 2°55.448 13.461197 3.515622 25.539833  
2002-04-25 07:54:10 51°14.114 2°55.443 13.461197 3.515622 25.539833  
2002-04-25 07:54:15 51°14.12 2°55.439 13.580153 3.558011 26.405573  
2002-04-25 07:54:20 51°14.126 2°55.434 13.491501 3.359071 25.424407  
2002-04-25 07:54:26 51°14.132 2°55.43 13.35906 3.162792 24.403756  
2002-04-25 07:54:30 51°14.137 2°55.426 13.027479 3.099317 24.187942  
2002-04-25 07:54:35 51°14.142 2°55.422 12.937956 3.043457 24.032867  
2002-04-25 07:54:40 51°14.148 2°55.417 12.937956 3.043457 24.032867  
2002-04-25 07:54:45 51°14.153 2°55.413 12.935623 3.023839 24.102135  
2002-04-25 07:54:51 51°14.16 2°55.407 13.107665 2.992108 23.961059  
2002-04-25 07:54:55 51°14.164 2°55.403 13.02824 2.966484 23.885407  
2002-04-25 07:55:00 51°14.169 2°55.398 12.860215 2.954274 23.886674  
2002-04-25 07:55:05 51°14.175 2°55.393 12.887336 2.946768 23.926334  
2002-04-25 07:55:10 51°14.18 2°55.388 12.887336 2.946768 23.926334  
2002-04-25 07:55:16 51°14.186 2°55.382 12.895102 2.943266 23.951967  
2002-04-25 07:55:20 51°14.19 2°55.377 12.912426 2.943967 24.006294  
2002-04-25 07:55:25 51°14.194 2°55.372 12.810255 2.947571 24.085042  
2002-04-25 07:55:30 51°14.199 2°55.366 12.785306 2.951776 24.152333  
2002-04-25 07:55:35 51°14.204 2°55.36 12.782833 2.95558 24.215201  
2002-04-25 07:55:40 51°14.208 2°55.354 12.782833 2.95558 24.215201  
2002-04-25 07:55:45 51°14.213 2°55.348 12.790521 2.959284 24.266934  
2002-04-25 07:55:50 51°14.217 2°55.342 12.919247 2.959584 24.288459  
2002-04-25 07:55:56 51°14.223 2°55.334 13.03908 2.964289 24.344929  
2002-04-25 07:56:00 51°14.226 2°55.329 12.801131 2.949375 24.214395  
2002-04-25 07:56:05 51°14.231 2°55.323 13.101937 2.957883 24.302813  
2002-04-25 07:56:10 51°14.236 2°55.317 13.101937 2.957883 24.302813  
2002-04-25 07:56:16 51°14.241 2°55.31 12.892723 2.953779 24.273085  
2002-04-25 07:56:20 51°14.245 2°55.305 13.077276 2.944771 24.209313  
2002-04-25 07:56:25 51°14.25 2°55.299 12.737765 2.939666 24.174931  
2002-04-25 07:56:31 51°14.255 2°55.292 12.846201 2.931659 24.10829  
2002-04-25 07:56:36 51°14.26 2°55.286 12.745863 2.919648 24.00488  
2002-04-25 07:56:40 51°14.263 2°55.28 12.745863 2.919648 24.00488  
2002-04-25 07:56:46 51°14.269 2°55.272 12.994992 2.907538 23.904495  
2002-04-25 07:56:50 51°14.272 2°55.267 12.835554 2.896828 23.811907  
2002-04-25 07:56:55 51°14.276 2°55.26 12.512866 2.889022 23.739773  
2002-04-25 07:57:00 51°14.28 2°55.252 12.675374 2.884018 23.70031  
2002-04-25 07:57:05 51°14.285 2°55.244 12.78661 2.882917 23.698114  
2002-04-25 07:57:10 51°14.289 2°55.236 12.78661 2.882917 23.698114  
2002-04-25 07:57:15 51°14.294 2°55.227 12.709548 2.884819 23.726517  
2002-04-25 07:57:20 51°14.298 2°55.218 12.642129 2.890524 23.792353  
2002-04-25 07:57:26 51°14.304 2°55.207 12.639065 2.897029 23.86457  
2002-04-25 07:57:30 51°14.308 2°55.199 12.630143 2.90894 23.981545  
2002-04-25 07:57:35 51°14.313 2°55.188 12.590021 2.915946 24.051121  
2002-04-25 07:57:40 51°14.318 2°55.178 12.590021 2.915946 24.051121  
2002-04-25 07:57:45 51°14.324 2°55.167 12.509029 2.920851 24.103624  
2002-04-25 07:57:50 51°14.33 2°55.157 12.664069 2.926756 24.169255  
2002-04-25 07:57:55 51°14.335 2°55.146 12.585782 2.931761 24.223773  
2002-04-25 07:58:00 51°14.34 2°55.135 12.514221 2.934163 24.25014  
2002-04-25 07:58:05 51°14.346 2°55.123 12.437475 2.935264 24.266163  
2002-04-25 07:58:11 51°14.353 2°55.109 12.437475 2.935264 24.266163  
2002-04-25 07:58:15 51°14.357 2°55.1 12.524423 2.934964 24.266925  
2002-04-25 07:58:20 51°14.363 2°55.089 12.533811 2.933163 24.254505  
2002-04-25 07:58:25 51°14.37 2°55.077 12.630278 2.931461 24.242494  
2002-04-25 07:58:30 51°14.376 2°55.066 12.53539 2.932262 24.251791  
2002-04-25 07:58:35 51°14.383 2°55.053 12.485502 2.933463 24.266239  
2002-04-25 07:58:40 51°14.39 2°55.041 12.485502 2.933463 24.266239  
2002-04-25 07:58:45 51°14.397 2°55.029 12.445158 2.937767 24.318009  
2002-04-25 07:58:50 51°14.405 2°55.017 12.613556 2.942371 24.363536  
2002-04-25 07:58:55 51°14.414 2°55.004 12.452434 2.946876 24.411192  
2002-04-25 07:59:00 51°14.422 2°54.991 12.54586 2.958487 24.524322  
2002-04-25 07:59:05 51°14.432 2°54.978 12.279005 2.968998 24.630049  
2002-04-25 07:59:10 51°14.442 2°54.964 12.279005 2.968998 24.630049  
2002-04-25 07:59:15 51°14.452 2°54.95 12.302922 2.981911 24.763017  
2002-04-25 07:59:20 51°14.462 2°54.936 12.403388 2.992922 24.869528  
2002-04-25 07:59:25 51°14.472 2°54.921 12.458895 3.00063 24.94791  
2002-04-25 07:59:30 51°14.483 2°54.906 12.470641 3.015446 25.093675  
2002-04-25 07:59:35 51°14.493 2°54.89 12.306138 3.031364 25.247158  
2002-04-25 07:59:40 51°14.503 2°54.875 12.306138 3.031364 25.247158  
2002-04-25 07:59:45 51°14.514 2°54.858 12.352993 3.046381 25.396234  
2002-04-25 07:59:50 51°14.524 2°54.842 12.345344 3.056492 25.496667  
2002-04-25 07:59:55 51°14.535 2°54.826 12.473623 3.074814 25.67445  
2002-04-25 08:00:00 51°14.546 2°54.81 12.318138 3.100645 25.921813  
2002-04-25 08:00:05 51°14.557 2°54.794 12.552899 3.124575 26.15151  
2002-04-25 08:00:10 51°14.568 2°54.778 12.552899 3.124575 26.15151  
2002-04-25 08:00:15 51°14.578 2°54.762 12.309443 3.165028 26.539569  
2002-04-25 08:00:20 51°14.589 2°54.746 12.512912 3.18856 26.773847  
2002-04-25 08:00:25 51°14.601 2°54.732 12.276604 3.227515 27.149813  
2002-04-25 08:00:30 51°14.613 2°54.719 12.336654 3.252652 27.399722  
2002-04-25 08:00:35 51°14.625 2°54.706 12.056774 3.27158 27.583058  
2002-04-25 08:00:40 51°14.637 2°54.693 12.056774 3.27158 27.583058  
2002-04-25 08:00:45 51°14.65 2°54.68 12.081544 3.292512 27.792869  
2002-04-25 08:00:50 51°14.662 2°54.666 12.10485 3.309339 27.968756  
2002-04-25 08:00:55 51°14.674 2°54.654 12.058138 3.333277 28.200456  
2002-04-25 08:01:00 51°14.688 2°54.646 12.035724 3.349603 28.371198  
2002-04-25 08:01:05 51°14.702 2°54.641 12.069592 3.366632 28.544088  
2002-04-25 08:01:10 51°14.716 2°54.639 12.069592 3.366632 28.544088  
2002-04-25 08:01:15 51°14.73 2°54.639 12.13664 3.375647 28.639533  
2002-04-25 08:01:20 51°14.744 2°54.642 12.137003 3.395079 28.831892  
2002-04-25 08:01:25 51°14.757 2°54.647 11.921218 3.405598 28.944197  
2002-04-25 08:01:30 51°14.771 2°54.65 12.014531 3.41862 29.077223  
2002-04-25 08:01:35 51°14.785 2°54.656 12.189104 3.424731 29.145815  
2002-04-25 08:01:40 51°14.799 2°54.66 12.189104 3.424731 29.145815  
2002-04-25 08:01:45 51°14.813 2°54.665 11.920671 3.433346 29.234443  
2002-04-25 08:01:50 51°14.827 2°54.67 11.949271 3.439958 29.307295  
2002-04-25 08:01:55 51°14.842 2°54.675 12.168958 3.44136 29.324842  
2002-04-25 08:02:01 51°14.859 2°54.68 11.911561 3.442863 29.343958  
2002-04-25 08:02:06 51°14.873 2°54.684 12.277918 3.440259 29.323648  
2002-04-25 08:02:10 51°14.885 2°54.687 12.277918 3.440259 29.323648  
2002-04-25 08:02:15 51°14.899 2°54.691 12.16737 3.451879 29.443983  
2002-04-25 08:02:20 51°14.914 2°54.694 12.125833 3.457389 29.502908  
2002-04-25 08:02:25 51°14.928 2°54.698 12.016987 3.461396 29.548267  
2002-04-25 08:02:31 51°14.946 2°54.704 12.009891 3.464803 29.584239  
2002-04-25 08:02:35 51°14.957 2°54.708 12.308945 3.465404 29.598627  
2002-04-25 08:02:40 51°14.971 2°54.714 12.308945 3.465404 29.598627  
2002-04-25 08:02:45 51°14.985 2°54.719 12.270306 3.467608 29.623236  
2002-04-25 08:02:51 51°15.003 2°54.726 12.311527 3.469111 29.643075  
2002-04-25 08:02:55 51°15.014 2°54.73 12.153482 3.469812 29.650967  
2002-04-25 08:03:00 51°15.028 2°54.735 11.857371 3.471315 29.666455  
2002-04-25 08:03:05 51°15.042 2°54.741 12.154617 3.472417 29.678771  
2002-04-25 08:03:10 51°15.057 2°54.745 12.154617 3.472417 29.678771  
2002-04-25 08:03:15 51°15.071 2°54.75 11.999837 3.473118 29.688537  
2002-04-25 08:03:20 51°15.085 2°54.755 12.075454 3.47412 29.696164  
2002-04-25 08:03:25 51°15.099 2°54.76 12.106122 3.473919 29.698007  
2002-04-25 08:03:31 51°15.116 2°54.767 11.921765 3.473619 29.695781  
2002-04-25 08:03:35 51°15.127 2°54.771 12.107894 3.473519 29.695455  
2002-04-25 08:03:40 51°15.141 2°54.777 12.107894 3.473519 29.695455  
2002-04-25 08:03:45 51°15.156 2°54.783 12.217634 3.473819 29.700801  
2002-04-25 08:03:50 51°15.17 2°54.789 11.838948 3.475222 29.715351  
2002-04-25 08:03:55 51°15.184 2°54.795 11.987461 3.473419 29.700745  
2002-04-25 08:04:01 51°15.201 2°54.801 12.318273 3.473318 29.701043  
2002-04-25 08:04:05 51°15.212 2°54.806 12.113662 3.475923 29.728873  
2002-04-25 08:04:10 51°15.226 2°54.811 12.113662 3.475923 29.728873  
2002-04-25 08:04:15 51°15.24 2°54.816 11.886363 3.473819 29.712038  
2002-04-25 08:04:20 51°15.255 2°54.822 12.024491 3.476124 29.735149  
2002-04-25 08:04:25 51°15.269 2°54.829 11.944308 3.476424 29.741752  
2002-04-25 08:04:30 51°15.283 2°54.836 11.869589 3.476725 29.743978  
2002-04-25 08:04:35 51°15.297 2°54.843 11.935246 3.476825 29.748682  
2002-04-25 08:04:40 51°15.311 2°54.851 11.935246 3.476825 29.748682  
2002-04-25 08:04:45 51°15.324 2°54.858 11.931011 3.474521 29.731191  
2002-04-25 08:04:50 51°15.338 2°54.867 11.964568 3.478128 29.771059  
2002-04-25 08:04:55 51°15.352 2°54.873 11.803411 3.478228 29.777647  
2002-04-25 08:05:00 51°15.366 2°54.88 12.022627 3.476825 29.771846  
2002-04-25 08:05:05 51°15.38 2°54.887 11.872963 3.480131 29.81015  
2002-04-25 08:05:10 51°15.394 2°54.896 11.872963 3.480131 29.81015  
2002-04-25 08:05:15 51°15.408 2°54.904 11.872689 3.476926 29.784081  
2002-04-25 08:05:20 51°15.421 2°54.914 12.164965 3.480733 29.822768  
2002-04-25 08:05:25 51°15.435 2°54.923 11.896069 3.477527 29.797321  
2002-04-25 08:05:31 51°15.45 2°54.936 12.041953 3.479731 29.820782  
2002-04-25 08:05:35 51°15.46 2°54.945 11.820612 3.481234 29.841983  
2002-04-25 08:05:40 51°15.472 2°54.959 11.820612 3.481234 29.841983  
2002-04-25 08:05:45 51°15.484 2°54.973 11.789127 3.479531 29.828931  
2002-04-25 08:05:50 51°15.494 2°54.99 11.970212 3.481334 29.849224  
2002-04-25 08:05:55 51°15.506 2°55.005 11.814225 3.483037 29.868571  
2002-04-25 08:06:00 51°15.516 2°55.021 11.884266 3.483338 29.875838  
2002-04-25 08:06:05 51°15.528 2°55.035 11.802133 3.484139 29.885983  
2002-04-25 08:06:10 51°15.539 2°55.05 11.802133 3.484139 29.885983  
2002-04-25 08:06:15 51°15.55 2°55.064 11.724604 3.482436 29.872297  
2002-04-25 08:06:20 51°15.562 2°55.079 11.87 3.48424 29.891348  
2002-04-25 08:06:25 51°15.573 2°55.094 11.755024 3.480833 29.859563  
2002-04-25 08:06:30 51°15.584 2°55.109 11.903087 3.48454 29.897361  
2002-04-25 08:06:35 51°15.595 2°55.125 11.899624 3.48434 29.898606  
2002-04-25 08:06:40 51°15.606 2°55.141 11.899624 3.48434 29.898606  
2002-04-25 08:06:45 51°15.617 2°55.157 11.742419 3.482236 29.883623  
2002-04-25 08:06:50 51°15.628 2°55.172 11.856368 3.483939 29.903622  
2002-04-25 08:06:55 51°15.639 2°55.188 11.77315 3.486644 29.933168  
2002-04-25 08:07:00 51°15.65 2°55.203 11.846382 3.485142 29.922014  
2002-04-25 08:07:05 51°15.661 2°55.22 11.925591 3.483539 29.909903  
2002-04-25 08:07:10 51°15.672 2°55.234 11.925591 3.483539 29.909903  
2002-04-25 08:07:15 51°15.683 2°55.25 11.954188 3.487646 29.951559  
2002-04-25 08:07:20 51°15.694 2°55.264 11.880483 3.484741 29.927039  
2002-04-25 08:07:25 51°15.705 2°55.279 11.805829 3.487847 29.957262  
2002-04-25 08:07:31 51°15.719 2°55.297 11.877111 3.487045 29.95595  
2002-04-25 08:07:35 51°15.727 2°55.309 11.94786 3.487947 29.965176  
2002-04-25 08:07:40 51°15.738 2°55.325 11.94786 3.487947 29.965176  
2002-04-25 08:07:45 51°15.748 2°55.341 12.210922 3.487947 29.967707  
2002-04-25 08:07:50 51°15.759 2°55.357 11.876792 3.48975 29.988064  
2002-04-25 08:07:55 51°15.769 2°55.374 11.83758 3.48965 29.989642  
2002-04-25 08:08:00 51°15.779 2°55.39 11.837215 3.490051 29.99473  
2002-04-25 08:08:05 51°15.789 2°55.406 12.135459 3.490251 29.997275  
2002-04-25 08:08:11 51°15.802 2°55.424 12.135459 3.490251 29.997275  
2002-04-25 08:08:15 51°15.811 2°55.436 12.063274 3.490552 30.001408  
2002-04-25 08:08:20 51°15.823 2°55.45 11.796931 3.491153 30.009676  
2002-04-25 08:08:25 51°15.834 2°55.464 11.767854 3.490752 30.005854  
2002-04-25 08:08:30 51°15.846 2°55.478 11.759499 3.490652 30.004899  
2002-04-25 08:08:35 51°15.858 2°55.492 11.985641 3.490752 30.007123  
2002-04-25 08:08:40 51°15.869 2°55.507 11.985641 3.490752 30.007123  
2002-04-25 08:08:45 51°15.88 2°55.523 12.281769 3.490652 30.007435  
2002-04-25 08:08:50 51°15.889 2°55.54 11.799258 3.48975 30.000104  
2002-04-25 08:08:55 51°15.899 2°55.557 11.73269 3.489851 30.001059  
2002-04-25 08:09:00 51°15.909 2°55.574 11.767946 3.48925 29.99596  
2002-04-25 08:09:05 51°15.919 2°55.59 11.954871 3.48955 29.998193  
2002-04-25 08:09:10 51°15.93 2°55.607 11.954871 3.48955 29.998193  
2002-04-25 08:09:15 51°15.94 2°55.623 11.656131 3.488949 29.994362  
2002-04-25 08:09:20 51°15.951 2°55.64 11.804232 3.488548 29.99054  
2002-04-25 08:09:25 51°15.961 2°55.657 11.919988 3.488348 29.987995  
2002-04-25 08:09:31 51°15.973 2°55.676 11.994241 3.488548 29.989272  
2002-04-25 08:09:35 51°15.981 2°55.69 11.847978 3.488248 29.983871  
2002-04-25 08:09:40 51°15.992 2°55.706 11.847978 3.488248 29.983871  
2002-04-25 08:09:45 51°16.001 2°55.724 11.848708 3.487647 29.980039  
2002-04-25 08:09:51 51°16.014 2°55.743 11.846747 3.485443 29.957122  
2002-04-25 08:09:55 51°16.022 2°55.756 11.701117 3.487446 29.976228  
2002-04-25 08:10:00 51°16.033 2°55.773 11.85076 3.486945 29.972718  
2002-04-25 08:10:05 51°16.044 2°55.788 11.778172 3.486444 29.967308  
2002-04-25 08:10:10 51°16.055 2°55.803 11.778172 3.486444 29.967308  
2002-04-25 08:10:15 51°16.067 2°55.818 11.964841 3.486645 29.967952  
2002-04-25 08:10:20 51°16.078 2°55.833 12.040998 3.484541 29.94726  
2002-04-25 08:10:25 51°16.089 2°55.848 11.88969 3.465607 29.76681  
2002-04-25 08:10:31 51°16.103 2°55.866 11.816825 3.487246 29.972418  
2002-04-25 08:10:35 51°16.111 2°55.88 12.194094 3.486645 29.966686  
2002-04-25 08:10:40 51°16.122 2°55.895 12.194094 3.486645 29.966686  
2002-04-25 08:10:45 51°16.131 2°55.913 11.969302 3.48404 29.940586  
2002-04-25 08:10:50 51°16.141 2°55.93 12.010027 3.486044 29.959689  
2002-04-25 08:10:55 51°16.151 2°55.949 11.790587 3.485943 29.958101  
2002-04-25 08:11:00 51°16.162 2°55.966 11.867766 3.486244 29.960966  
2002-04-25 08:11:05 51°16.172 2°55.985 11.978041 3.485743 29.954292  
2002-04-25 08:11:10 51°16.185 2°56.002 11.978041 3.485743 29.954292  
2002-04-25 08:11:15 51°16.196 2°56.021 11.907142 3.485442 29.951426  
2002-04-25 08:11:20 51°16.21 2°56.038 11.97795 3.485943 29.954303  
2002-04-25 08:11:25 51°16.223 2°56.056 12.010892 3.484941 29.942856  
2002-04-25 08:11:30 51°16.236 2°56.075 11.940802 3.482537 29.919939  
2002-04-25 08:11:35 51°16.248 2°56.095 11.866626 3.485042 29.943178  
2002-04-25 08:11:40 51°16.26 2°56.116 11.866626 3.485042 29.943178  
2002-04-25 08:11:45 51°16.271 2°56.137 12.017032 3.481936 29.911051  
2002-04-25 08:11:50 51°16.282 2°56.16 11.87123 3.48414 29.929527  
2002-04-25 08:11:55 51°16.292 2°56.183 11.957239 3.48414 29.932055  
2002-04-25 08:12:00 51°16.301 2°56.208 11.879025 3.482036 29.910742  
2002-04-25 08:12:05 51°16.31 2°56.233 11.885725 3.481335 29.905323  
2002-04-25 08:12:10 51°16.319 2°56.259 11.885725 3.481335 29.905323  
2002-04-25 08:12:15 51°16.328 2°56.283 11.953141 3.483539 29.925695  
2002-04-25 08:12:20 51°16.336 2°56.309 11.988689 3.483639 29.926017  
2002-04-25 08:12:25 51°16.345 2°56.335 12.103851 3.481535 29.904075  
2002-04-25 08:12:30 51°16.354 2°56.361 11.835756 3.482437 29.909508  
2002-04-25 08:12:35 51°16.363 2°56.386 11.912062 3.483038 29.911446  
2002-04-25 08:12:40 51°16.372 2°56.411 11.912062 3.483038 29.911446  
2002-04-25 08:12:45 51°16.381 2°56.438 11.913839 3.482637 29.906365  
2002-04-25 08:12:50 51°16.389 2°56.464 11.911333 3.482537 29.905411  
2002-04-25 08:12:55 51°16.396 2°56.492 12.056819 3.482938 29.90986  
2002-04-25 08:13:00 51°16.401 2°56.52 12.092267 3.480934 29.888249  
2002-04-25 08:13:05 51°16.407 2°56.547 11.869589 3.482036 29.902533  
2002-04-25 08:13:10 51°16.412 2°56.574 11.869589 3.482036 29.902533  
2002-04-25 08:13:15 51°16.418 2°56.598 11.93561 3.482236 29.905073  
2002-04-25 08:13:20 51°16.425 2°56.621 11.862797 3.481435 29.897438  
2002-04-25 08:13:25 51°16.431 2°56.643 11.784608 3.482537 29.909831  
2002-04-25 08:13:30 51°16.438 2°56.662 12.078181 3.483038 29.915235  
2002-04-25 08:13:35 51°16.444 2°56.681 12.22974 3.483238 29.917144  
2002-04-25 08:13:40 51°16.449 2°56.699 12.22974 3.483238 29.917144  
2002-04-25 08:13:45 51°16.454 2°56.717 11.705002 3.483338 29.921258  
2002-04-25 08:13:51 51°16.459 2°56.736 12.19482 3.483639 29.925385  
2002-04-25 08:13:55 51°16.461 2°56.749 11.858739 3.483539 29.926327  
2002-04-25 08:14:00 51°16.464 2°56.764 11.747489 3.482537 29.919307  
2002-04-25 08:14:05 51°16.466 2°56.778 12.013848 3.483339 29.928842  
2002-04-25 08:14:10 51°16.468 2°56.791 12.013848 3.483339 29.928842  
2002-04-25 08:14:15 51°16.471 2°56.803 11.865806 3.483739 29.934559  
2002-04-25 08:14:20 51°16.474 2°56.814 12.020807 3.483238 29.930416  
2002-04-25 08:14:25 51°16.477 2°56.824 12.320311 3.482938 29.927551  
2002-04-25 08:14:30 51°16.48 2°56.833 12.062456 3.482938 29.926919  
2002-04-25 08:14:35 51°16.484 2°56.841 11.988962 3.482337 29.921189  
2002-04-25 08:14:40 51°16.487 2°56.849 11.988962 3.482337 29.921189  
2002-04-25 08:14:45 51°16.49 2°56.856 11.843372 3.480834 29.906235  
2002-04-25 08:14:50 51°16.493 2°56.862 11.918075 3.482136 29.917384  
2002-04-25 08:14:55 51°16.496 2°56.869 12.144675 3.481635 29.910714  
2002-04-25 08:15:00 51°16.5 2°56.874 11.99738 3.481736 29.909774  
2002-04-25 08:15:05 51°16.503 2°56.88 11.9255 3.481034 29.901196  
2002-04-25 08:15:10 51°16.505 2°56.885 11.9255 3.481034 29.901196  
2002-04-25 08:15:15 51°16.508 2°56.89 11.891148 3.480533 29.896423  
2002-04-25 08:15:20 51°16.512 2°56.895 11.894064 3.480734 29.895807  
2002-04-25 08:15:25 51°16.515 2°56.899 11.97135 3.480633 29.892959  
2002-04-25 08:15:30 51°16.518 2°56.903 11.823212 3.480333 29.888833  
2002-04-25 08:15:35 51°16.521 2°56.907 11.789492 3.479832 29.882168  
2002-04-25 08:15:40 51°16.523 2°56.91 11.789492 3.479832 29.882168  
2002-04-25 08:15:45 51°16.526 2°56.914 11.942259 3.479331 29.876135  
2002-04-25 08:15:51 51°16.53 2°56.918 11.984639 3.479131 29.872966  
2002-04-25 08:15:55 51°16.532 2°56.92 11.83644 3.479632 29.875214  
2002-04-25 08:16:00 51°16.535 2°56.923 11.883173 3.479732 29.873646  
2002-04-25 08:16:05 51°16.538 2°56.925 11.955554 3.479331 29.867938  
2002-04-25 08:16:10 51°16.542 2°56.928 11.955554 3.479331 29.867938  
2002-04-25 08:16:15 51°16.547 2°56.932 11.807655 3.479331 29.866047  
2002-04-25 08:16:20 51°16.552 2°56.935 11.885543 3.47883 29.860018  
2002-04-25 08:16:25 51°16.558 2°56.94 11.9617 3.47883 29.858127  
2002-04-25 08:16:30 51°16.564 2°56.945 11.850805 3.47893 29.855301  
2002-04-25 08:16:35 51°16.571 2°56.951 11.924908 3.47863 29.849921  
2002-04-25 08:16:40 51°16.578 2°56.958 11.924908 3.47863 29.849921  
2002-04-25 08:16:45 51°16.586 2°56.968 12.003931 3.477527 29.836914  
2002-04-25 08:16:50 51°16.594 2°56.979 11.821524 3.47913 29.849022  
2002-04-25 08:16:55 51°16.603 2°56.994 11.891968 3.479231 29.848717  
2002-04-25 08:17:00 51°16.614 2°57.008 11.890282 3.47893 29.844598  
2002-04-25 08:17:05 51°16.625 2°57.023 12.00425 3.477828 29.832224  
2002-04-25 08:17:10 51°16.636 2°57.04 12.00425 3.477828 29.832224  
2002-04-25 08:17:15 51°16.648 2°57.057 12.112527 3.479431 29.846847  
2002-04-25 08:17:20 51°16.66 2°57.075 11.999154 3.47903 29.841775  
2002-04-25 08:17:25 51°16.671 2°57.094 11.849574 3.478429 29.834168  
2002-04-25 08:17:30 51°16.682 2°57.116 12.071182 3.47883 29.837981  
2002-04-25 08:17:35 51°16.691 2°57.139 11.927094 3.477127 29.821778  
2002-04-25 08:17:40 51°16.702 2°57.16 11.927094 3.477127 29.821778  
2002-04-25 08:17:45 51°16.713 2°57.182 12.001338 3.477527 29.824333  
2002-04-25 08:17:50 51°16.725 2°57.203 11.883492 3.478028 29.829727  
2002-04-25 08:17:55 51°16.736 2°57.226 11.844968 3.47923 29.841164  
2002-04-25 08:18:00 51°16.746 2°57.249 11.842551 3.476926 29.818615  
2002-04-25 08:18:05 51°16.757 2°57.271 11.913839 3.477127 29.820521  
2002-04-25 08:18:10 51°16.77 2°57.291 11.913839 3.477127 29.820521  
2002-04-25 08:18:15 51°16.782 2°57.312 11.952458 3.477026 29.822083  
2002-04-25 08:18:20 51°16.797 2°57.328 12.025446 3.477127 29.822407  
2002-04-25 08:18:25 51°16.81 2°57.347 11.990555 3.476225 29.815715  
2002-04-25 08:18:31 51°16.828 2°57.367 11.91516 3.477928 29.832548  
2002-04-25 08:18:35 51°16.839 2°57.382 11.87939 3.478329 29.838248  
2002-04-25 08:18:40 51°16.853 2°57.4 11.87939 3.478329 29.838248  
2002-04-25 08:18:45 51°16.866 2°57.421 11.98919 3.47893 29.847115  
2002-04-25 08:18:51 51°16.88 2°57.447 11.99506 3.478529 29.84519  
2002-04-25 08:18:55 51°16.888 2°57.467 12.143949 3.47893 29.850263  
2002-04-25 08:19:00 51°16.898 2°57.491 12.108393 3.476926 29.830564  
2002-04-25 08:19:05 51°16.906 2°57.517 11.852036 3.477527 29.836914  
2002-04-25 08:19:10 51°16.914 2°57.543 11.852036 3.477527 29.836914  
2002-04-25 08:19:15 51°16.923 2°57.568 11.924908 3.472017 29.783852  
2002-04-25 08:19:20 51°16.933 2°57.593 12.06891 3.478028 29.838535  
2002-04-25 08:19:25 51°16.943 2°57.618 12.219402 3.478128 29.838229  
2002-04-25 08:19:30 51°16.953 2°57.642 12.441362 3.477828 29.833482  
2002-04-25 08:19:35 51°16.963 2°57.666 11.956647 3.477728 29.83127  
2002-04-25 08:19:40 51°16.973 2°57.69 11.956647 3.477728 29.83127  
2002-04-25 08:19:45 51°16.984 2°57.714 11.917483 3.476526 29.819832  
2002-04-25 08:19:51 51°16.996 2°57.743 11.918758 3.477427 29.827782  
2002-04-25 08:19:55 51°17.004 2°57.762 12.108757 3.47893 29.843339  
2002-04-25 08:20:00 51°17.015 2°57.786 12.187199 3.478128 29.835713  
2002-04-25 08:20:05 51°17.027 2°57.809 12.073773 3.477728 29.833158  
2002-04-25 08:20:10 51°17.039 2°57.832 12.073773 3.477728 29.833158  
2002-04-25 08:20:15 51°17.05 2°57.855 11.818194 3.477127 29.828696  
2002-04-25 08:20:20 51°17.061 2°57.878 11.748219 3.476726 29.824883  
2002-04-25 08:20:25 51°17.071 2°57.903 11.761051 3.476526 29.824235  
2002-04-25 08:20:30 51°17.083 2°57.926 11.768448 3.475925 29.819144  
2002-04-25 08:20:36 51°17.097 2°57.952 11.771644 3.475524 29.814073  
2002-04-25 08:20:40 51°17.106 2°57.971 11.771644 3.475524 29.814073  
2002-04-25 08:20:45 51°17.117 2°57.994 11.780683 3.479431 29.849994  
2002-04-25 08:20:50 51°17.127 2°58.018 11.77735 3.478629 29.840479  
2002-04-25 08:20:55 51°17.137 2°58.042 11.777487 3.480032 29.84879  
2002-04-25 08:21:00 51°17.146 2°58.068 11.780728 3.478228 29.825974  
2002-04-25 08:21:05 51°17.154 2°58.094 11.785795 3.476726 29.80477  
2002-04-25 08:21:11 51°17.164 2°58.125 11.785795 3.476726 29.80477  
2002-04-25 08:21:15 51°17.17 2°58.147 11.786114 3.478028 29.812756  
2002-04-25 08:21:20 51°17.178 2°58.173 11.789994 3.475724 29.783946  
2002-04-25 08:21:25 51°17.186 2°58.199 11.829644 3.477327 29.794789  
2002-04-25 08:21:30 51°17.194 2°58.225 11.799624 3.477126 29.790375  
2002-04-25 08:21:35 51°17.202 2°58.251 11.80259 3.477126 29.788493  
2002-04-25 08:21:40 51°17.211 2°58.277 11.80259 3.477126 29.788493  
2002-04-25 08:21:45 51°17.22 2°58.303 11.808658 3.477226 29.787564  
2002-04-25 08:21:50 51°17.23 2°58.328 11.81386 3.475022 29.764742  
2002-04-25 08:21:55 51°17.238 2°58.354 11.818513 3.474922 29.76191  
2002-04-25 08:22:00 51°17.246 2°58.38 11.821387 3.475924 29.768921  
2002-04-25 08:22:05 51°17.254 2°58.406 11.824854 3.476325 29.770847  
2002-04-25 08:22:10 51°17.262 2°58.433 11.824854 3.476325 29.770847  
2002-04-25 08:22:15 51°17.27 2°58.459 11.829918 3.476224 29.76739  
2002-04-25 08:22:20 51°17.278 2°58.486 11.831651 3.475423 29.75602  
2002-04-25 08:22:25 51°17.285 2°58.513 11.83571 3.473519 29.734815  
2002-04-25 08:22:31 51°17.294 2°58.545 11.836805 3.475723 29.751987  
2002-04-25 08:22:35 51°17.3 2°58.567 11.840454 3.473118 29.72288  
2002-04-25 08:22:40 51°17.308 2°58.594 11.840454 3.473118 29.72288  
2002-04-25 08:22:45 51°17.315 2°58.621 11.842506 3.473018 29.718804  
2002-04-25 08:22:50 51°17.323 2°58.647 11.843691 3.47382 29.72266  
2002-04-25 08:22:55 51°17.331 2°58.673 11.845151 3.473619 29.718259  
2002-04-25 08:23:00 51°17.34 2°58.699 11.887092 3.474721 29.725591  
2002-04-25 08:23:05 51°17.348 2°58.725 11.851216 3.473319 29.709784  
2002-04-25 08:23:10 51°17.357 2°58.751 11.851216 3.473319 29.709784  
2002-04-25 08:23:15 51°17.366 2°58.777 11.892242 3.475422 29.72787  
2002-04-25 08:23:20 51°17.374 2°58.804 11.855958 3.475222 29.724095  
2002-04-25 08:23:26 51°17.383 2°58.836 11.858283 3.474921 29.719994  
2002-04-25 08:23:30 51°17.388 2°58.858 11.859195 3.47422 29.712093  
2002-04-25 08:23:35 51°17.396 2°58.885 11.86193 3.47442 29.712744  
2002-04-25 08:23:40 51°17.403 2°58.913 11.86193 3.47442 29.712744  
2002-04-25 08:23:45 51°17.41 2°58.94 11.897573 3.47422 29.708346  
2002-04-25 08:23:50 51°17.417 2°58.967 11.861429 3.47392 29.703623  
2002-04-25 08:23:55 51°17.424 2°58.993 11.860699 3.473819 29.700177  
2002-04-25 08:24:00 51°17.432 2°59.019 11.864939 3.473719 29.697979  
2002-04-25 08:24:05 51°17.441 2°59.045 11.869133 3.473619 29.695781  
2002-04-25 08:24:11 51°17.452 2°59.075 11.869133 3.473619 29.695781  
2002-04-25 08:24:15 51°17.46 2°59.095 11.869589 3.473519 29.692336  
2002-04-25 08:24:20 51°17.469 2°59.12 11.869361 3.473419 29.690763  
2002-04-25 08:24:25 51°17.477 2°59.146 11.905911 3.472717 29.682867  
2002-04-25 08:24:30 51°17.484 2°59.173 11.866991 3.471816 29.674943  
2002-04-25 08:24:36 51°17.492 2°59.206 11.901127 3.471816 29.674943  
2002-04-25 08:24:40 51°17.497 2°59.228 11.901127 3.471816 29.674943  
2002-04-25 08:24:45 51°17.503 2°59.255 11.858511 3.471415 29.669897  
2002-04-25 08:24:50 51°17.509 2°59.282 11.856642 3.471214 29.666129  
2002-04-25 08:24:55 51°17.517 2°59.309 11.855639 3.469812 29.651589  
2002-04-25 08:25:00 51°17.524 2°59.336 11.858283 3.472116 29.672183  
2002-04-25 08:25:05 51°17.531 2°59.363 11.857371 3.471916 29.669037  
2002-04-25 08:25:10 51°17.538 2°59.39 11.857371 3.471916 29.669037  
2002-04-25 08:25:15 51°17.546 2°59.416 11.857554 3.471715 29.668384  
2002-04-25 08:25:20 51°17.554 2°59.443 11.855091 3.471816 29.67058  
2002-04-25 08:25:25 51°17.563 2°59.468 11.855319 3.471315 29.667701  
2002-04-25 08:25:30 51°17.571 2°59.494 11.854635 3.471215 29.669244  
2002-04-25 08:25:35 51°17.579 2°59.52 11.85459 3.470714 29.665742  
2002-04-25 08:25:40 51°17.587 2°59.546 11.85459 3.470714 29.665742  
2002-04-25 08:25:45 51°17.596 2°59.571 11.853906 3.470914 29.667642  
2002-04-25 08:25:50 51°17.604 2°59.597 11.852356 3.470714 29.666989  
2002-04-25 08:25:55 51°17.613 2°59.622 11.851033 3.470513 29.665712  
2002-04-25 08:26:01 51°17.623 2°59.654 11.849164 3.470213 29.663486  
2002-04-25 08:26:05 51°17.63 2°59.675 11.847385 3.46891 29.651762  
2002-04-25 08:26:11 51°17.64 2°59.706 11.847385 3.46891 29.651762  
2002-04-25 08:26:15 51°17.647 2°59.727 11.845014 3.469612 29.659034  
2002-04-25 08:26:20 51°17.655 2°59.752 11.844102 3.468009 29.643215  
2002-04-25 08:26:26 51°17.666 2°59.783 11.844239 3.467608 29.640661  
2002-04-25 08:26:31 51°17.676 2°59.809 11.844376 3.469612 29.659657  
2002-04-25 08:26:35 51°17.684 2°59.829 11.842734 3.469612 29.660903  
2002-04-25 08:26:40 51°17.693 2°59.854 11.842734 3.469612 29.660903  
2002-04-25 08:26:45 51°17.702 2°59.879 11.839678 3.469612 29.660903  
2002-04-25 08:26:50 51°17.711 2°59.905 11.877885 3.469512 29.661823  
2002-04-25 08:26:55 51°17.719 2°59.932 11.837671 3.465705 29.626352  
2002-04-25 08:27:00 51°17.727 2°59.959 11.833156 3.469111 29.65927  
2002-04-25 08:27:05 51°17.734 2°59.985 11.827546 3.46861 29.65639  
2002-04-25 08:27:11 51°17.742 3°0.018 11.827546 3.46861 29.65639  
2002-04-25 08:27:15 51°17.748 3°0.04 11.820931 3.467308 29.644663  
2002-04-25 08:27:20 51°17.755 3°0.067 11.813723 3.467508 29.646563  
2002-04-25 08:27:26 51°17.765 3°0.099 11.805191 3.467608 29.648136  
2002-04-25 08:27:30 51°17.771 3°0.121 11.79652 3.467608 29.649383  
2002-04-25 08:27:35 51°17.779 3°0.148 11.790587 3.468309 29.657279  
2002-04-25 08:27:40 51°17.787 3°0.174 11.790587 3.468309 29.657279  
2002-04-25 08:27:45 51°17.793 3°0.202 11.782874 3.465905 29.636347  
2002-04-25 08:27:51 51°17.802 3°0.235 11.776483 3.466907 29.647717  
2002-04-25 08:27:55 51°17.806 3°0.257 11.809525 3.467208 29.656802  
2002-04-25 08:28:01 51°17.814 3°0.29 11.771918 3.467108 29.661465  
2002-04-25 08:28:05 51°17.819 3°0.312 11.773561 3.466507 29.659504  
2002-04-25 08:28:10 51°17.825 3°0.339 11.773561 3.466507 29.659504  
2002-04-25 08:28:15 51°17.833 3°0.366 11.775661 3.466106 29.662565  
2002-04-25 08:28:20 51°17.841 3°0.393 11.818696 3.465805 29.664081  
2002-04-25 08:28:25 51°17.85 3°0.419 11.786616 3.465004 29.662715  
2002-04-25 08:28:30 51°17.857 3°0.446 11.789857 3.464503 29.661081  
2002-04-25 08:28:35 51°17.865 3°0.472 11.791637 3.464002 29.660695  
2002-04-25 08:28:40 51°17.871 3°0.5 11.791637 3.464002 29.660695  
2002-04-25 08:28:45 51°17.878 3°0.528 11.789218 3.463602 29.659388  
2002-04-25 08:28:50 51°17.884 3°0.556 11.778674 3.463502 29.659685  
2002-04-25 08:28:55 51°17.89 3°0.584 11.765891 3.463201 29.656207  
2002-04-25 08:29:00 51°17.896 3°0.612 11.752832 3.463501 29.657188  
2002-04-25 08:29:05 51°17.903 3°0.639 11.740272 3.463702 29.657217  
2002-04-25 08:29:11 51°17.911 3°0.672 11.740272 3.463702 29.657217  
2002-04-25 08:29:15 51°17.917 3°0.693 11.722502 3.463902 29.655998  
2002-04-25 08:29:20 51°17.925 3°0.72 11.702031 3.464102 29.656028  
2002-04-25 08:29:25 51°17.931 3°0.747 11.680137 3.464103 29.6579  
2002-04-25 08:29:31 51°17.94 3°0.779 11.654439 3.463802 29.658793  
2002-04-25 08:29:36 51°17.946 3°0.807 11.63079 3.463602 29.662511  
2002-04-25 08:29:40 51°17.952 3°0.829 11.63079 3.463602 29.662511  
2002-04-25 08:29:45 51°17.958 3°0.858 11.609466 3.460296 29.638603  
2002-04-25 08:29:50 51°17.964 3°0.886 11.587449 3.459595 29.637561  
2002-04-25 08:29:55 51°17.97 3°0.914 11.564738 3.45679 29.622147  
2002-04-25 08:30:00 51°17.975 3°0.942 11.547425 3.460397 29.673935  
2002-04-25 08:30:05 51°17.98 3°0.971 11.543164 3.458894 29.672162  
2002-04-25 08:30:11 51°17.986 3°1.005 11.543164 3.458894 29.672162  
2002-04-25 08:30:15 51°17.992 3°1.026 11.587266 3.457291 29.671315  
2002-04-25 08:30:20 51°17.999 3°1.053 11.562357 3.455689 29.672349  
2002-04-25 08:30:25 51°18.007 3°1.08 11.576278 3.454186 29.671205  
2002-04-25 08:30:30 51°18.014 3°1.107 11.588594 3.452383 29.673473  
2002-04-25 08:30:35 51°18.021 3°1.134 11.599214 3.451482 29.677436  
2002-04-25 08:30:40 51°18.027 3°1.162 11.599214 3.451482 29.677436  
2002-04-25 08:30:45 51°18.034 3°1.189 11.612624 3.449378 29.674334  
2002-04-25 08:30:51 51°18.041 3°1.22 11.622554 3.447876 29.673196  
2002-04-25 08:30:56 51°18.047 3°1.245 11.634038 3.447075 29.666176  
2002-04-25 08:31:00 51°18.052 3°1.265 11.640534 3.446473 29.66044  
2002-04-25 08:31:05 51°18.059 3°1.29 11.644331 3.446574 29.656369  
2002-04-25 08:31:11 51°18.067 3°1.318 11.644331 3.446574 29.656369  
2002-04-25 08:31:15 51°18.072 3°1.336 11.645657 3.446974 29.653283  
2002-04-25 08:31:20 51°18.079 3°1.358 11.642958 3.446573 29.641927  
2002-04-25 08:31:25 51°18.086 3°1.38 11.637561 3.448276 29.650636  
2002-04-25 08:31:31 51°18.094 3°1.404 11.635959 3.448777 29.647882  
2002-04-25 08:31:35 51°18.099 3°1.419 11.63143 3.449679 29.647067  
2002-04-25 08:31:40 51°18.105 3°1.437 11.63143 3.449679 29.647067  
2002-04-25 08:31:45 51°18.111 3°1.453 11.628822 3.450179 29.646197  
2002-04-25 08:31:50 51°18.117 3°1.468 11.623195 3.450981 29.650071  
2002-04-25 08:31:55 51°18.123 3°1.481 11.618116 3.451281 29.650427  
2002-04-25 08:32:00 51°18.128 3°1.495 11.61569 3.451482 29.651709  
2002-04-25 08:32:06 51°18.134 3°1.509 11.611434 3.451281 29.649173  
2002-04-25 08:32:11 51°18.139 3°1.52 11.611434 3.451281 29.649173  
2002-04-25 08:32:15 51°18.143 3°1.529 11.607956 3.451582 29.653917  
2002-04-25 08:32:20 51°18.147 3°1.539 11.602281 3.450881 29.651625  
2002-04-25 08:32:25 51°18.151 3°1.549 11.597292 3.451281 29.656697  
2002-04-25 08:32:31 51°18.155 3°1.56 11.592119 3.450981 29.656969  
2002-04-25 08:32:35 51°18.158 3°1.567 11.586351 3.45078 29.656314  
2002-04-25 08:32:40 51°18.161 3°1.576 11.586351 3.45078 29.656314  
2002-04-25 08:32:45 51°18.164 3°1.585 11.580719 3.450179 29.65435  
2002-04-25 08:32:50 51°18.167 3°1.594 11.575729 3.455877 28.814195  
2002-04-25 08:32:55 51°18.169 3°1.602 11.568448 3.449879 29.657759  
2002-04-25 08:33:00 51°18.171 3°1.61 11.56428 3.449378 29.655494  
2002-04-25 08:33:05 51°18.173 3°1.618 11.555349 3.449278 29.657677  
2002-04-25 08:33:10 51°18.176 3°1.625 11.555349 3.449278 29.657677  
2002-04-25 08:33:15 51°18.177 3°1.632 11.550677 3.448577 29.655385  
2002-04-25 08:33:20 51°18.179 3°1.64 11.544539 3.448276 29.657541  
2002-04-25 08:33:25 51°18.18 3°1.647 11.538858 3.447375 29.651454  
2002-04-25 08:33:30 51°18.182 3°1.654 11.534505 3.447375 29.657105  
2002-04-25 08:33:35 51°18.184 3°1.661 11.529236 3.446874 29.657352  
2002-04-25 08:33:40 51°18.185 3°1.668 11.529236 3.446874 29.657352  
2002-04-25 08:33:45 51°18.186 3°1.675 11.525479 3.445672 29.649651  
2002-04-25 08:33:50 51°18.187 3°1.682 11.524471 3.445872 29.657846  
2002-04-25 08:33:55 51°18.189 3°1.688 11.519063 3.445171 29.654924  
2002-04-25 08:34:00 51°18.189 3°1.695 11.514801 3.44467 29.655171  
2002-04-25 08:34:05 51°18.191 3°1.702 11.514572 3.44427 29.655747  
2002-04-25 08:34:10 51°18.192 3°1.708 11.514572 3.44427 29.655747  
2002-04-25 08:34:15 51°18.193 3°1.714 11.507697 3.443468 29.651867  
2002-04-25 08:34:20 51°18.193 3°1.72 11.500729 3.443268 29.654356  
2002-04-25 08:34:25 51°18.195 3°1.726 11.499216 3.442767 29.652717  
2002-04-25 08:34:30 51°18.195 3°1.732 11.496878 3.442467 29.651734  
2002-04-25 08:34:35 51°18.196 3°1.738 11.492661 3.441966 29.650094  
2002-04-25 08:34:40 51°18.197 3°1.743 11.492661 3.441966 29.650094  
2002-04-25 08:34:45 51°18.197 3°1.749 11.48991 3.441866 29.651025  
2002-04-25 08:34:50 51°18.198 3°1.754 11.487251 3.441365 29.650014  
2002-04-25 08:34:55 51°18.198 3°1.758 11.483124 3.440764 29.648676  
2002-04-25 08:35:00 51°18.199 3°1.762 11.482711 3.440463 29.647692  
2002-04-25 08:35:05 51°18.199 3°1.764 11.482849 3.440063 29.64701  
2002-04-25 08:35:10 51°18.199 3°1.766 11.482849 3.440063 29.64701  
2002-04-25 08:35:15 51°18.199 3°1.768 11.48184 3.439562 29.646628  
2002-04-25 08:35:20 51°18.199 3°1.77 11.481886 3.439161 29.644058  
2002-04-25 08:35:25 51°18.199 3°1.773 11.483261 3.438861 29.644962  
2002-04-25 08:35:30 51°18.199 3°1.775 11.474916 3.43846 29.643649  
2002-04-25 08:35:35 51°18.199 3°1.777 11.471017 3.43826 29.644252  
2002-04-25 08:35:40 51°18.199 3°1.779 11.471017 3.43826 29.644252  
2002-04-25 08:35:45 51°18.199 3°1.781 11.505176 3.437959 29.642639  
2002-04-25 08:35:50 51°18.199 3°1.784 11.464734 3.437659 29.641025  
2002-04-25 08:35:55 51°18.199 3°1.787 11.463175 3.437759 29.641353  
2002-04-25 08:36:00 51°18.199 3°1.789 11.461202 3.437559 29.640696  
2002-04-25 08:36:05 51°18.2 3°1.792 11.461156 3.436457 29.630161  
2002-04-25 08:36:11 51°18.2 3°1.795 11.461156 3.436457 29.630161  
2002-04-25 08:36:15 51°18.2 3°1.797 11.461065 3.437058 29.639685  
2002-04-25 08:36:20 51°18.2 3°1.8 11.467257 3.436757 29.638071  
2002-04-25 08:36:25 51°18.2 3°1.803 11.470559 3.435956 29.633556  
2002-04-25 08:36:30 51°18.2 3°1.806 11.476704 3.436257 29.639579  
2002-04-25 08:36:35 51°18.2 3°1.809 11.474503 3.433051 29.61081  
2002-04-25 08:36:40 51°18.2 3°1.812 11.474503 3.433051 29.61081  
2002-04-25 08:36:45 51°18.201 3°1.815 11.472164 3.435856 29.638895  
2002-04-25 08:36:50 51°18.201 3°1.818 11.472668 3.435355 29.635364  
2002-04-25 08:36:55 51°18.201 3°1.821 11.469275 3.435155 29.633448  
2002-04-25 08:37:00 51°18.202 3°1.824 11.464459 3.434854 29.629944  
2002-04-25 08:37:05 51°18.202 3°1.827 11.468862 3.435355 29.632215  
2002-04-25 08:37:10 51°18.202 3°1.831 11.468862 3.435355 29.632215  
2002-04-25 08:37:15 51°18.203 3°1.834 11.46822 3.435555 29.631613  
2002-04-25 08:37:20 51°18.203 3°1.837 11.459689 3.435455 29.629396  
2002-04-25 08:37:26 51°18.204 3°1.841 11.452624 3.435355 29.627808  
2002-04-25 08:37:30 51°18.204 3°1.843 11.450101 3.435255 29.628109  
2002-04-25 08:37:35 51°18.205 3°1.847 11.450606 3.434954 29.627124  
2002-04-25 08:37:40 51°18.205 3°1.85 11.450606 3.434954 29.627124  
2002-04-25 08:37:45 51°18.206 3°1.853 11.452211 3.433852 29.617215  
2002-04-25 08:37:50 51°18.206 3°1.856 11.440099 3.434554 29.623921  
2002-04-25 08:37:55 51°18.207 3°1.86 11.434869 3.434554 29.624551  
2002-04-25 08:38:00 51°18.207 3°1.863 11.431702 3.434253 29.625454  
2002-04-25 08:38:05 51°18.208 3°1.866 11.43083 3.433953 29.623839  
2002-04-25 08:38:11 51°18.208 3°1.87 11.43083 3.433953 29.623839  
2002-04-25 08:38:15 51°18.209 3°1.873 11.435603 3.433752 29.624442  
2002-04-25 08:38:20 51°18.21 3°1.876 11.435603 3.43235 29.612285  
2002-04-25 08:38:25 51°18.21 3°1.88 11.432941 3.433151 29.62247  
2002-04-25 08:38:30 51°18.211 3°1.883 11.431748 3.43255 29.621129  
2002-04-25 08:38:35 51°18.212 3°1.886 11.426517 3.432049 29.619485  
2002-04-25 08:38:40 51°18.212 3°1.89 11.426517 3.432049 29.619485  
2002-04-25 08:38:45 51°18.213 3°1.893 11.422845 3.431348 29.615925  
2002-04-25 08:38:50 51°18.214 3°1.896 11.419632 3.430346 29.607598  
2002-04-25 08:38:55 51°18.215 3°1.9 11.414951 3.431348 29.617185  
2002-04-25 08:39:00 51°18.215 3°1.903 11.452395 3.431048 29.614939  
2002-04-25 08:39:05 51°18.216 3°1.907 11.410269 3.430647 29.611734  
2002-04-25 08:39:11 51°18.217 3°1.911 11.410269 3.430647 29.611734  
2002-04-25 08:39:15 51°18.218 3°1.914 11.412931 3.430647 29.612994  
2002-04-25 08:39:20 51°18.219 3°1.917 11.410636 3.430647 29.614254  
2002-04-25 08:39:25 51°18.219 3°1.92 11.408478 3.430146 29.61198  
2002-04-25 08:39:30 51°18.22 3°1.924 11.406275 3.428844 29.602034  
2002-04-25 08:39:36 51°18.221 3°1.928 11.404943 3.429645 29.611596  
2002-04-25 08:39:41 51°18.222 3°1.931 11.404943 3.429645 29.611596  
2002-04-25 08:39:45 51°18.223 3°1.933 11.404209 3.428443 29.603868  
2002-04-25 08:39:50 51°18.223 3°1.937 11.402143 3.429044 29.610883  
2002-04-25 08:39:55 51°18.224 3°1.94 11.399848 3.427642 29.599346  
2002-04-25 08:40:00 51°18.225 3°1.943 11.399572 3.428443 29.607649  
2002-04-25 08:40:05 51°18.226 3°1.946 11.397231 3.428143 29.606662  
2002-04-25 08:40:10 51°18.227 3°1.95 11.397231 3.428143 29.606662  
2002-04-25 08:40:15 51°18.228 3°1.953 11.395256 3.426841 29.595453  
2002-04-25 08:40:20 51°18.229 3°1.956 11.396358 3.427742 29.604716  
2002-04-25 08:40:25 51°18.23 3°1.959 11.39847 3.427542 29.603428  
2002-04-25 08:40:30 51°18.231 3°1.962 11.397185 3.427442 29.604359  
2002-04-25 08:40:35 51°18.232 3°1.965 11.432115 3.42634 29.595697  
2002-04-25 08:40:40 51°18.233 3°1.968 11.432115 3.42634 29.595697  
2002-04-25 08:40:45 51°18.234 3°1.971 11.432712 3.427241 29.606853  
2002-04-25 08:40:50 51°18.235 3°1.974 11.395302 3.427041 29.604303  
2002-04-25 08:40:55 51°18.236 3°1.977 11.396312 3.425539 29.591173  
2002-04-25 08:41:00 51°18.237 3°1.98 11.394751 3.425438 29.592104  
2002-04-25 08:41:05 51°18.238 3°1.983 11.393098 3.425438 29.592104  
2002-04-25 08:41:10 51°18.24 3°1.986 11.393098 3.425438 29.592104  
2002-04-25 08:41:15 51°18.241 3°1.989 11.390343 3.42634 29.600739  
2002-04-25 08:41:20 51°18.242 3°1.992 11.387358 3.425338 29.591145  
2002-04-25 08:41:25 51°18.243 3°1.995 11.388552 3.425338 29.591775  
2002-04-25 08:41:30 51°18.244 3°1.997 11.389195 3.425238 29.590815  
2002-04-25 08:41:35 51°18.246 3°2 11.389012 3.425939 29.598792  
2002-04-25 08:41:40 51°18.247 3°2.003 11.389012 3.425939 29.598792  
2002-04-25 08:41:45 51°18.248 3°2.005 11.390114 3.426039 29.599752  
2002-04-25 08:41:51 51°18.25 3°2.009 11.388369 3.425839 29.598463  
2002-04-25 08:41:55 51°18.251 3°2.011 11.38768 3.425138 29.594268  
2002-04-25 08:42:00 51°18.252 3°2.013 11.387313 3.424737 29.592951  
2002-04-25 08:42:05 51°18.253 3°2.016 11.387588 3.424337 29.589112  
2002-04-25 08:42:11 51°18.255 3°2.019 11.387588 3.424337 29.589112  
2002-04-25 08:42:15 51°18.256 3°2.021 11.387864 3.425138 29.595528  
2002-04-25 08:42:20 51°18.258 3°2.023 11.386578 3.422734 29.573758  
2002-04-25 08:42:25 51°18.259 3°2.026 11.388185 3.422834 29.574088  
2002-04-25 08:42:30 51°18.26 3°2.028 11.38745 3.424938 29.594239  
2002-04-25 08:42:35 51°18.262 3°2.031 11.387358 3.425238 29.598379  
2002-04-25 08:42:40 51°18.263 3°2.033 11.387358 3.425238 29.598379  
2002-04-25 08:42:45 51°18.265 3°2.036 11.38621 3.425038 29.597091  
2002-04-25 08:42:50 51°18.267 3°2.038 11.384006 3.424938 29.596131  
2002-04-25 08:42:55 51°18.268 3°2.04 11.382353 3.424938 29.596131  
2002-04-25 08:43:00 51°18.27 3°2.043 11.380608 3.424837 29.595802  
2002-04-25 08:43:05 51°18.272 3°2.045 11.377485 3.424737 29.594211  
2002-04-25 08:43:10 51°18.274 3°2.048 11.377485 3.424737 29.594211  
2002-04-25 08:43:15 51°18.276 3°2.05 11.378679 3.424737 29.593581  
2002-04-25 08:43:20 51°18.278 3°2.053 11.378082 3.424938 29.596131  
2002-04-25 08:43:25 51°18.28 3°2.056 11.378312 3.424837 29.595802  
2002-04-25 08:43:31 51°18.282 3°2.059 11.378174 3.424938 29.597392  
2002-04-25 08:43:35 51°18.284 3°2.061 11.377163 3.424837 29.597693  
2002-04-25 08:43:40 51°18.286 3°2.064 11.377163 3.424837 29.597693  
2002-04-25 08:43:45 51°18.288 3°2.067 11.376337 3.424537 29.596705  
2002-04-25 08:43:51 51°18.291 3°2.07 11.378679 3.424437 29.597007  
2002-04-25 08:43:55 51°18.293 3°2.073 11.380103 3.424337 29.597308  
2002-04-25 08:44:00 51°18.295 3°2.076 11.381251 3.424236 29.596348  
2002-04-25 08:44:05 51°18.298 3°2.079 11.381756 3.424337 29.597308  
2002-04-25 08:44:10 51°18.3 3°2.083 11.381756 3.424337 29.597308  
2002-04-25 08:44:15 51°18.303 3°2.086 11.381848 3.424036 29.59569  
2002-04-25 08:44:20 51°18.306 3°2.09 11.380837 3.424036 29.59569  
2002-04-25 08:44:25 51°18.308 3°2.093 11.380883 3.424036 29.59569  
2002-04-25 08:44:30 51°18.311 3°2.097 11.381343 3.424136 29.59665  
2002-04-25 08:44:35 51°18.313 3°2.101 11.381251 3.424337 29.597939  
2002-04-25 08:44:40 51°18.316 3°2.105 11.381251 3.424337 29.597939  
2002-04-25 08:44:45 51°18.319 3°2.109 11.381526 3.424337 29.596678  
2002-04-25 08:44:51 51°18.322 3°2.115 11.381618 3.424337 29.596678  
2002-04-25 08:44:55 51°18.324 3°2.118 11.380654 3.424337 29.596047  
2002-04-25 08:45:00 51°18.327 3°2.123 11.37946 3.424437 29.597007  
2002-04-25 08:45:05 51°18.33 3°2.127 11.378955 3.424437 29.597007  
2002-04-25 08:45:10 51°18.333 3°2.132 11.378955 3.424437 29.597007  
2002-04-25 08:45:15 51°18.336 3°2.136 11.378312 3.425038 29.602135  
2002-04-25 08:45:20 51°18.338 3°2.141 11.375051 3.424637 29.599557  
2002-04-25 08:45:25 51°18.341 3°2.146 11.374132 3.424637 29.598927  
2002-04-25 08:45:31 51°18.344 3°2.152 11.370136 3.424637 29.598927  
2002-04-25 08:45:35 51°18.346 3°2.156 11.371239 3.424737 29.599887  
2002-04-25 08:45:40 51°18.348 3°2.162 11.371239 3.424737 29.599887  
2002-04-25 08:45:45 51°18.35 3°2.167 11.369815 3.424537 29.599228  
2002-04-25 08:45:50 51°18.352 3°2.172 11.3649 3.424637 29.600188  
2002-04-25 08:45:55 51°18.354 3°2.177 11.360076 3.424637 29.60145  
2002-04-25 08:46:00 51°18.356 3°2.182 11.357825 3.424237 29.598871  
2002-04-25 08:46:05 51°18.357 3°2.187 11.355666 3.424337 29.599831  
2002-04-25 08:46:10 51°18.359 3°2.193 11.355666 3.424337 29.599831  
2002-04-25 08:46:15 51°18.361 3°2.198 11.358239 3.424136 29.600434  
2002-04-25 08:46:20 51°18.363 3°2.203 11.355804 3.423936 29.599145  
2002-04-25 08:46:25 51°18.365 3°2.208 11.35608 3.424136 29.602958  
2002-04-25 08:46:30 51°18.366 3°2.212 11.358468 3.423736 29.601641  
2002-04-25 08:46:35 51°18.368 3°2.217 11.356906 3.423736 29.603535  
2002-04-25 08:46:40 51°18.369 3°2.222 11.356906 3.423736 29.603535  
2002-04-25 08:46:45 51°18.371 3°2.226 11.357917 3.423736 29.604797  
2002-04-25 08:46:50 51°18.373 3°2.231 11.359112 3.423335 29.602849  
2002-04-25 08:46:55 51°18.375 3°2.235 11.36026 3.423135 29.602191  
2002-04-25 08:47:00 51°18.377 3°2.24 11.359709 3.422934 29.600901  
2002-04-25 08:47:05 51°18.378 3°2.244 11.356585 3.422834 29.600572  
2002-04-25 08:47:10 51°18.38 3°2.248 11.356585 3.422834 29.600572  
2002-04-25 08:47:15 51°18.382 3°2.252 11.356034 3.422834 29.59994  
2002-04-25 08:47:20 51°18.383 3°2.256 11.35856 3.422734 29.599611  
2002-04-25 08:47:25 51°18.385 3°2.26 11.356952 3.422734 29.599611  
2002-04-25 08:47:30 51°18.387 3°2.264 11.355712 3.422734 29.59898  
2002-04-25 08:47:35 51°18.388 3°2.268 11.350428 3.422834 29.59994  
2002-04-25 08:47:40 51°18.39 3°2.272 11.350428 3.422834 29.59994  
2002-04-25 08:47:45 51°18.392 3°2.276 11.351531 3.423135 29.603453  
2002-04-25 08:47:50 51°18.393 3°2.279 11.349831 3.422834 29.600572  
2002-04-25 08:47:55 51°18.395 3°2.283 11.348728 3.422734 29.599611  
2002-04-25 08:48:00 51°18.397 3°2.286 11.38419 3.422834 29.59994  
2002-04-25 08:48:05 51°18.398 3°2.29 11.345696 3.423035 29.602492  
2002-04-25 08:48:11 51°18.4 3°2.294 11.345696 3.423035 29.602492  
2002-04-25 08:48:15 51°18.402 3°2.296 11.342985 3.422634 29.600544  
2002-04-25 08:48:20 51°18.403 3°2.3 11.340733 3.422534 29.600215  
2002-04-25 08:48:25 51°18.405 3°2.303 11.341606 3.422534 29.602109  
2002-04-25 08:48:30 51°18.406 3°2.306 11.342387 3.422634 29.604332  
2002-04-25 08:48:35 51°18.408 3°2.309 11.343169 3.422434 29.603674  
2002-04-25 08:48:40 51°18.409 3°2.312 11.343169 3.422434 29.603674  
2002-04-25 08:48:45 51°18.411 3°2.315 11.342985 3.422534 29.604634  
2002-04-25 08:48:51 51°18.413 3°2.318 11.343674 3.422534 29.605266  
2002-04-25 08:48:55 51°18.414 3°2.321 11.340963 3.422334 29.605239  
2002-04-25 08:49:00 51°18.415 3°2.323 11.341974 3.421833 29.601698  
2002-04-25 08:49:05 51°18.417 3°2.326 11.341698 3.422033 29.604883  
2002-04-25 08:49:11 51°18.419 3°2.329 11.341698 3.422033 29.604883  
2002-04-25 08:49:15 51°18.42 3°2.331 11.343398 3.421933 29.603922  
2002-04-25 08:49:20 51°18.421 3°2.334 11.341239 3.421833 29.60233  
2002-04-25 08:49:25 51°18.422 3°2.336 11.342342 3.421733 29.602  
2002-04-25 08:49:30 51°18.424 3°2.338 11.339814 3.421733 29.601369  
2002-04-25 08:49:36 51°18.426 3°2.341 11.337976 3.421733 29.601369  
2002-04-25 08:49:40 51°18.427 3°2.343 11.337976 3.421733 29.601369  
2002-04-25 08:49:45 51°18.428 3°2.346 11.337516 3.421532 29.600079  
2002-04-25 08:49:50 51°18.429 3°2.348 11.34009 3.421833 29.603593  
2002-04-25 08:49:55 51°18.431 3°2.35 11.337792 3.421733 29.600737  
2002-04-25 08:50:00 51°18.432 3°2.352 11.334851 3.421733 29.602  
2002-04-25 08:50:05 51°18.433 3°2.355 11.33338 3.421632 29.60104  
2002-04-25 08:50:10 51°18.434 3°2.357 11.33338 3.421632 29.60104  
2002-04-25 08:50:15 51°18.435 3°2.359 11.333656 3.421632 29.602303  
2002-04-25 08:50:20 51°18.437 3°2.361 11.333978 3.421432 29.601012  
2002-04-25 08:50:25 51°18.439 3°2.364 11.334391 3.421532 29.603236  
2002-04-25 08:50:30 51°18.441 3°2.366 11.335816 3.421332 29.601315  
2002-04-25 08:50:35 51°18.444 3°2.368 11.335081 3.421332 29.603209  
2002-04-25 08:50:40 51°18.447 3°2.369 11.335081 3.421332 29.603209  
2002-04-25 08:50:45 51°18.45 3°2.371 11.339217 3.421332 29.602578  
2002-04-25 08:50:50 51°18.454 3°2.373 11.337562 3.421332 29.603209  
2002-04-25 08:50:55 51°18.457 3°2.374 11.340963 3.421132 29.601919  
2002-04-25 08:51:00 51°18.461 3°2.376 11.343766 3.420831 29.599036  
2002-04-25 08:51:05 51°18.466 3°2.377 11.344869 3.421031 29.600958  
2002-04-25 08:51:10 51°18.471 3°2.378 11.344869 3.421031 29.600958  
2002-04-25 08:51:15 51°18.477 3°2.379 11.344777 3.421031 29.60159  
2002-04-25 08:51:20 51°18.484 3°2.38 11.349464 3.421132 29.601288  
2002-04-25 08:51:25 51°18.493 3°2.38 11.352634 3.420931 29.599997  
2002-04-25 08:51:30 51°18.502 3°2.382 11.351623 3.421031 29.599695  
2002-04-25 08:51:35 51°18.513 3°2.384 11.388552 3.421332 29.601946  
2002-04-25 08:51:40 51°18.524 3°2.386 11.388552 3.421332 29.601946  
2002-04-25 08:51:45 51°18.537 3°2.389 11.348177 3.421031 29.597801  
2002-04-25 08:51:50 51°18.55 3°2.391 11.346293 3.421232 29.597828  
2002-04-25 08:51:55 51°18.564 3°2.394 11.345512 3.421332 29.598157  
2002-04-25 08:52:00 51°18.578 3°2.397 11.344685 3.421332 29.596263  
2002-04-25 08:52:05 51°18.592 3°2.402 11.343996 3.421733 29.598843  
2002-04-25 08:52:10 51°18.607 3°2.409 11.343996 3.421733 29.598843  
2002-04-25 08:52:15 51°18.622 3°2.417 11.341193 3.421733 29.598843  
2002-04-25 08:52:20 51°18.636 3°2.428 11.376153 3.421632 29.597883  
2002-04-25 08:52:25 51°18.65 3°2.442 11.332829 3.421632 29.598514  
2002-04-25 08:52:30 51°18.663 3°2.457 11.32906 3.421632 29.599145  
2002-04-25 08:52:35 51°18.675 3°2.474 11.328325 3.421632 29.598514  
2002-04-25 08:52:40 51°18.688 3°2.491 11.328325 3.421632 29.598514  
2002-04-25 08:52:45 51°18.701 3°2.508 11.328003 3.421632 29.599145  
2002-04-25 08:52:50 51°18.713 3°2.525 11.323039 3.421632 29.599145  
2002-04-25 08:52:55 51°18.726 3°2.542 11.320465 3.421833 29.601698  
2002-04-25 08:53:00 51°18.74 3°2.558 11.318259 3.422033 29.604251  
2002-04-25 08:53:05 51°18.753 3°2.573 11.314995 3.422634 29.612543  
2002-04-25 08:53:11 51°18.771 3°2.589 11.314995 3.422634 29.612543  
2002-04-25 08:53:15 51°18.782 3°2.598 11.317201 3.423335 29.621797  
2002-04-25 08:53:20 51°18.798 3°2.61 11.318029 3.423636 29.626576  
2002-04-25 08:53:25 51°18.813 3°2.62 11.3155 3.423836 29.631027  
2002-04-25 08:53:30 51°18.829 3°2.63 11.315041 3.424337 29.638996  
2002-04-25 08:53:35 51°18.844 3°2.64 11.315271 3.424738 29.646005  
2002-04-25 08:53:40 51°18.86 3°2.651 11.315271 3.424738 29.646005  
2002-04-25 08:53:45 51°18.875 3°2.662 11.312374 3.425239 29.652711  
2002-04-25 08:53:50 51°18.89 3°2.675 11.304605 3.425339 29.656205  
2002-04-25 08:53:55 51°18.905 3°2.689 11.302674 3.42584 29.661646  
2002-04-25 08:54:00 51°18.919 3°2.703 11.299777 3.426241 29.666759  
2002-04-25 08:54:05 51°18.934 3°2.717 11.301708 3.426441 29.668049  
2002-04-25 08:54:10 51°18.948 3°2.733 11.301708 3.426441 29.668049  
2002-04-25 08:54:15 51°18.962 3°2.748 11.306766 3.426842 29.671262  
2002-04-25 08:54:20 51°18.976 3°2.763 11.309708 3.427643 29.678956  
2002-04-25 08:54:25 51°18.99 3°2.78 11.308421 3.427944 29.68501  
2002-04-25 08:54:30 51°19.004 3°2.798 11.31049 3.428144 29.687567  
2002-04-25 08:54:35 51°19.018 3°2.814 11.350888 3.427944 29.688179  
2002-04-25 08:54:40 51°19.031 3°2.832 11.350888 3.427944 29.688179  
2002-04-25 08:54:45 51°19.045 3°2.851 11.316328 3.428445 29.695526  
2002-04-25 08:54:50 51°19.059 3°2.869 11.315041 3.428645 29.69745  
2002-04-25 08:54:55 51°19.073 3°2.888 11.316696 3.429046 29.700663  
2002-04-25 08:55:00 51°19.087 3°2.907 11.317523 3.429046 29.699395  
2002-04-25 08:55:05 51°19.101 3°2.926 11.392088 3.429146 29.699723  
2002-04-25 08:55:10 51°19.114 3°2.946 11.392088 3.429146 29.699723  
2002-04-25 08:55:15 51°19.128 3°2.965 11.316006 3.429446 29.700706  
2002-04-25 08:55:20 51°19.141 3°2.985 11.315546 3.429346 29.700378  
2002-04-25 08:55:26 51°19.158 3°3.008 11.351072 3.429747 29.702323  
2002-04-25 08:55:30 51°19.169 3°3.023 11.311225 3.429547 29.700399  
2002-04-25 08:55:35 51°19.183 3°3.041 11.31049 3.429847 29.702651  
2002-04-25 08:55:40 51°19.199 3°3.057 11.31049 3.429847 29.702651  
2002-04-25 08:55:45 51°19.214 3°3.073 11.307409 3.429647 29.699459  
2002-04-25 08:55:50 51°19.229 3°3.087 11.306122 3.429747 29.699786  
2002-04-25 08:55:55 51°19.245 3°3.1 11.303225 3.429546 29.697229  
2002-04-25 08:56:00 51°19.262 3°3.113 11.339171 3.429747 29.70042  
2002-04-25 08:56:05 51°19.278 3°3.127 11.299547 3.430248 29.70523  
2002-04-25 08:56:11 51°19.295 3°3.147 11.299547 3.430248 29.70523  
2002-04-25 08:56:14 51°19.305 3°3.155 11.334851 3.430348 29.708729  
2002-04-25 08:56:20 51°19.321 3°3.179 11.294535 3.429947 29.706784  
2002-04-25 08:56:25 51°19.335 3°3.198 11.293661 3.430348 29.71317  
2002-04-25 08:56:31 51°19.35 3°3.223 11.293431 3.430248 29.712208  
2002-04-25 08:56:35 51°19.362 3°3.237 11.293569 3.430448 29.714767  
2002-04-25 08:56:40 51°19.374 3°3.258 11.293569 3.430448 29.714767  
2002-04-25 08:56:45 51°19.389 3°3.274 11.294811 3.430448 29.718575  
2002-04-25 08:56:50 51°19.403 3°3.293 11.293799 3.43125 29.725003  
2002-04-25 08:56:55 51°19.418 3°3.309 11.294535 3.43155 29.72789  
2002-04-25 08:57:00 51°19.433 3°3.326 11.293431 3.431951 29.733644  
2002-04-25 08:57:06 51°19.451 3°3.345 11.291776 3.432251 29.738437  
2002-04-25 08:57:11 51°19.466 3°3.362 11.291776 3.432251 29.738437  
2002-04-25 08:57:15 51°19.478 3°3.375 11.292006 3.432552 29.743231  
2002-04-25 08:57:20 51°19.492 3°3.394 11.291408 3.432752 29.74452  
2002-04-25 08:57:25 51°19.506 3°3.412 11.29035 3.432953 29.748352  
2002-04-25 08:57:31 51°19.521 3°3.433 11.289844 3.433153 29.750277  
2002-04-25 08:57:35 51°19.532 3°3.445 11.287959 3.433053 29.748679  
2002-04-25 08:57:40 51°19.544 3°3.461 11.287959 3.433053 29.748679  
2002-04-25 08:57:45 51°19.556 3°3.475 11.288602 3.433654 29.75509  
2002-04-25 08:57:50 51°19.566 3°3.487 11.288602 3.433754 29.755416  
2002-04-25 08:57:55 51°19.577 3°3.498 11.288373 3.433854 29.756379  
2002-04-25 08:58:00 51°19.586 3°3.509 11.289108 3.433954 29.756706  
2002-04-25 08:58:05 51°19.595 3°3.518 11.28897 3.434255 29.761501  
2002-04-25 08:58:10 51°19.604 3°3.525 11.28897 3.434255 29.761501  
2002-04-25 08:58:15 51°19.612 3°3.533 11.289982 3.434355 29.761828  
2002-04-25 08:58:20 51°19.619 3°3.539 11.289476 3.434255 29.761501  
2002-04-25 08:58:25 51°19.626 3°3.544 11.290994 3.434455 29.764062  
2002-04-25 08:58:31 51°19.634 3°3.551 11.291408 3.434255 29.762773  
2002-04-25 08:58:35 51°19.639 3°3.555 11.292144 3.434355 29.763735  
2002-04-25 08:58:40 51°19.645 3°3.559 11.292144 3.434355 29.763735  
2002-04-25 08:58:45 51°19.651 3°3.563 11.294167 3.434455 29.765334  
2002-04-25 08:58:50 51°19.656 3°3.567 11.295684 3.434556 29.766933  
2002-04-25 08:58:55 51°19.662 3°3.571 11.296328 3.434455 29.765334  
2002-04-25 08:59:00 51°19.667 3°3.575 11.295822 3.434556 29.766297  
2002-04-25 08:59:05 51°19.671 3°3.579 11.333151 3.434656 29.766623  
2002-04-25 08:59:10 51°19.676 3°3.583 11.333151 3.434656 29.766623  
2002-04-25 08:59:15 51°19.681 3°3.586 11.295041 3.434756 29.76695  
2002-04-25 08:59:20 51°19.685 3°3.59 11.297478 3.434756 29.765042  
2002-04-25 08:59:26 51°19.69 3°3.594 11.298351 3.434856 29.766005  
2002-04-25 08:59:31 51°19.694 3°3.597 11.300834 3.434756 29.763134  
2002-04-25 08:59:35 51°19.697 3°3.6 11.304191 3.434956 29.765059  
2002-04-25 08:59:40 51°19.7 3°3.603 11.304191 3.434956 29.765059  
2002-04-25 08:59:45 51°19.702 3°3.605 11.30934 3.435056 29.766022  
2002-04-25 08:59:50 51°19.704 3°3.608 11.307133 3.434756 29.762499  
2002-04-25 08:59:55 51°19.706 3°3.61 11.302076 3.435056 29.766658  
2002-04-25 09:00:00 51°19.706 3°3.613 11.297478 3.435056 29.766022  
2002-04-25 09:00:06 51°19.707 3°3.615 11.293753 3.435257 29.766039  
2002-04-25 09:00:10 51°19.707 3°3.618 11.293753 3.435257 29.766039  
2002-04-25 09:00:15 51°19.708 3°3.62 11.293569 3.434756 29.759955  
2002-04-25 09:00:20 51°19.708 3°3.623 11.286763 3.435357 29.764458  
2002-04-25 09:00:25 51°19.709 3°3.625 11.286073 3.435457 29.763514  
2002-04-25 09:00:30 51°19.709 3°3.628 11.285061 3.435557 29.76384  
2002-04-25 09:00:36 51°19.71 3°3.632 11.320373 3.435557 29.764476  
2002-04-25 09:00:40 51°19.711 3°3.634 11.320373 3.435557 29.764476  
2002-04-25 09:00:45 51°19.711 3°3.636 11.281198 3.435657 29.76671  
2002-04-25 09:00:50 51°19.712 3°3.639 11.27853 3.435457 29.766693  
2002-04-25 09:00:55 51°19.712 3°3.642 11.27991 3.435257 29.767947  
2002-04-25 09:01:00 51°19.713 3°3.644 11.280554 3.434956 29.767603  
2002-04-25 09:01:05 51°19.713 3°3.647 11.281934 3.434756 29.768222  
2002-04-25 09:01:11 51°19.714 3°3.65 11.281934 3.434756 29.768222  
2002-04-25 09:01:15 51°19.715 3°3.652 11.281934 3.434455 29.76597  
2002-04-25 09:01:20 51°19.715 3°3.654 11.283084 3.434255 29.765953  
2002-04-25 09:01:25 51°19.715 3°3.657 11.285889 3.434155 29.767535  
2002-04-25 09:01:30 51°19.716 3°3.659 11.289476 3.433854 29.764646  
2002-04-25 09:01:35 51°19.717 3°3.662 11.298765 3.433854 29.765918  
2002-04-25 09:01:40 51°19.718 3°3.665 11.298765 3.433854 29.765918  
2002-04-25 09:01:45 51°19.718 3°3.667 11.298765 3.433654 29.763993  
2002-04-25 09:01:50 51°19.719 3°3.67 11.303685 3.433754 29.763683  
2002-04-25 09:01:55 51°19.72 3°3.673 11.304421 3.432953 29.756617  
2002-04-25 09:02:00 51°19.721 3°3.675 11.311823 3.433554 29.761122  
2002-04-25 09:02:05 51°19.721 3°3.678 11.366645 3.433654 29.760812  
2002-04-25 09:02:11 51°19.722 3°3.681 11.366645 3.433654 29.760812  
2002-04-25 09:02:15 51°19.722 3°3.684 11.340687 3.433654 29.75954  
2002-04-25 09:02:20 51°19.723 3°3.686 11.37822 3.434355 29.762463  
2002-04-25 09:02:26 51°19.723 3°3.69 11.342112 3.434155 29.757995  
2002-04-25 09:02:30 51°19.723 3°3.692 11.339309 3.434656 29.758993  
2002-04-25 09:02:35 51°19.724 3°3.695 11.332737 3.434756 29.758684  
2002-04-25 09:02:40 51°19.724 3°3.697 11.332737 3.434756 29.758684  
2002-04-25 09:02:45 51°19.724 3°3.7 11.362419 3.435056 29.757758  
2002-04-25 09:02:51 51°19.725 3°3.703 11.316834 3.435858 29.75783  
2002-04-25 09:02:55 51°19.725 3°3.705 11.31049 3.436358 29.755652  
2002-04-25 09:03:00 51°19.726 3°3.708 11.306995 3.437059 29.757303  
2002-04-25 09:03:05 51°19.726 3°3.711 11.301616 3.43726 29.756052  
2002-04-25 09:03:10 51°19.726 3°3.714 11.301616 3.43726 29.756052  
2002-04-25 09:03:15 51°19.726 3°3.717 11.294949 3.43736 29.757013  
2002-04-25 09:03:20 51°19.726 3°3.719 11.290258 3.43736 29.758918  
2002-04-25 09:03:25 51°19.727 3°3.722 11.288694 3.437059 29.758573  
2002-04-25 09:03:30 51°19.727 3°3.725 11.29127 3.43716 29.766523  
2002-04-25 09:03:35 51°19.727 3°3.727 11.294075 3.436859 29.765544  
2002-04-25 09:03:40 51°19.727 3°3.73 11.294075 3.436859 29.765544  
2002-04-25 09:03:45 51°19.728 3°3.734 11.294765 3.436459 29.766144  
2002-04-25 09:03:51 51°19.728 3°3.737 11.293799 3.436258 29.768034  
2002-04-25 09:03:55 51°19.729 3°3.739 11.295546 3.435657 29.767346  
2002-04-25 09:04:00 51°19.729 3°3.742 11.293937 3.435357 29.767002  
2002-04-25 09:04:05 51°19.73 3°3.745 11.296328 3.435056 29.767294  
2002-04-25 09:04:10 51°19.73 3°3.747 11.296328 3.435056 29.767294  
2002-04-25 09:04:15 51°19.731 3°3.75 11.299547 3.434956 29.766331  
2002-04-25 09:04:20 51°19.732 3°3.753 11.337838 3.435457 29.771144  
2002-04-25 09:04:25 51°19.732 3°3.756 11.336597 3.434656 29.763444  
2002-04-25 09:04:30 51°19.733 3°3.759 11.298397 3.434555 29.763117  
2002-04-25 09:04:35 51°19.734 3°3.762 11.298995 3.434656 29.764079  
2002-04-25 09:04:40 51°19.734 3°3.765 11.298995 3.434656 29.764079  
2002-04-25 09:04:45 51°19.734 3°3.768 11.299501 3.434555 29.763117  
2002-04-25 09:04:50 51°19.735 3°3.771 11.30065 3.434055 29.757032  
2002-04-25 09:04:55 51°19.735 3°3.773 11.299777 3.434656 29.761536  
2002-04-25 09:05:00 51°19.735 3°3.776 11.337057 3.434956 29.763152  
2002-04-25 09:05:05 51°19.736 3°3.779 11.304007 3.434856 29.762189  
2002-04-25 09:05:10 51°19.736 3°3.782 11.304007 3.434856 29.762189  
2002-04-25 09:05:15 51°19.737 3°3.785 11.306812 3.434756 29.760591  
2002-04-25 09:05:20 51°19.737 3°3.788 11.30957 3.435156 29.763169  
2002-04-25 09:05:25 51°19.737 3°3.791 11.309708 3.433954 29.749714  
2002-04-25 09:05:30 51°19.738 3°3.794 11.3098 3.435257 29.760953  
2002-04-25 09:05:35 51°19.738 3°3.797 11.309938 3.435056 29.7603  
2002-04-25 09:05:41 51°19.738 3°3.801 11.309938 3.435056 29.7603  
2002-04-25 09:05:45 51°19.738 3°3.803 11.310444 3.435056 29.7603  
2002-04-25 09:05:50 51°19.739 3°3.806 11.3098 3.435357 29.761916  
2002-04-25 09:05:55 51°19.738 3°3.81 11.308834 3.434656 29.753908  
2002-04-25 09:06:00 51°19.739 3°3.813 11.310306 3.435457 29.759064  
2002-04-25 09:06:05 51°19.739 3°3.816 11.310719 3.435858 29.758465  
2002-04-25 09:06:10 51°19.739 3°3.819 11.310719 3.435858 29.758465  
2002-04-25 09:06:15 51°19.739 3°3.822 11.31049 3.436559 29.75694  
2002-04-25 09:06:20 51°19.74 3°3.825 11.30957 3.437059 29.754763  
2002-04-25 09:06:25 51°19.74 3°3.828 11.308651 3.437761 29.75832  
2002-04-25 09:06:30 51°19.74 3°3.831 11.307409 3.437961 29.758338  
2002-04-25 09:06:35 51°19.741 3°3.834 11.306766 3.438161 29.760261  
2002-04-25 09:06:40 51°19.741 3°3.837 11.306766 3.438161 29.760261  
2002-04-25 09:06:45 51°19.742 3°3.84 11.306903 3.438161 29.761531  
2002-04-25 09:06:50 51°19.742 3°3.843 11.306903 3.437961 29.760878  
2002-04-25 09:06:55 51°19.743 3°3.846 11.307179 3.437961 29.762783  
2002-04-25 09:07:01 51°19.743 3°3.85 11.306628 3.437661 29.763074